Regional Weather Roundup
Issued by NWS

Home | Current Version | Previous Version | Graphics & Text | Print | Product List | Glossary On
Versions: 1 2 3 4 5 6 7 8 9 10 11 12 13 14 15 16 17 18 19 20 21 22 23 24 25 26 27 28 29 30 31 32 33 34 35 36 37 38 39 40 41 42 43 44 45 46 47 48 49 50
000
ASUS43 KIND 291909
RWRIN

WEATHER ROUNDUP FOR INDIANA
NATIONAL WEATHER SERVICE INDIANAPOLIS IN
300 PM EDT SAT AUG 29 2015

NOTE: "FAIR" INDICATES FEW OR NO CLOUDS BELOW 12,000 FEET WITH NO
SIGNIFICANT WEATHER AND/OR OBSTRUCTIONS TO VISIBILITY.

* - STATION DOES NOT REPORT WEATHER SUCH AS PRECIPITATION OR FOG.

+ - STATION NOT QUALITY CONTROLLED BY THE NATIONAL WEATHER SERVICE.
    USE DATA WITH CAUTION...ESPECIALLY DEWPOINT AND RELATIVE
    HUMIDITY OBSERVATIONS.

INZ001>003-010>013-019-020-292000-
NORTHWEST INDIANA

CITY           SKY/WX    TMP DP  RH WIND       PRES   REMARKS
GARY /AIRPORT/ CLOUDY    75  64  69 MISG      30.02F
KNOX *+        CLOUDY    68  68 100 CALM      30.06S
LA PORTE +     CLOUDY    72  71  99 S7        30.04F
MICHIGAN CITY+ CLOUDY    70  68  94 S6        30.03F
MONTICELLO +   CLOUDY    79  67  67 S6        30.05S
RENSSELAER +   CLOUDY    70  70 100 E3        30.05F
VALPARAISO     CLOUDY    72  67  84 SE8       30.04F

$$

LMZ046-743>745-292000-
SOUTHERN LAKE MICHIGAN

STATION/POSITION TIME  TEMP    WIND        PRES    WAVE
                       AIR SEA DIR/SP/G            HT
                 (UTC) (F)     (DEG/KT/KT) (MB)    (FT)
BURNS HARBOR     1800   72     180/  7/ 14 1017.6F
MICHIGAN CITY    1800   69     130/ 10/ 11   N/A
5NW MICH CITY    1900   71 71  190/ 10/ 14   N/A     1

$$

INZ004-005-014>016-021>024-292000-
NORTH CENTRAL INDIANA

CITY           SKY/WX    TMP DP  RH WIND       PRES   REMARKS
ELKHART        CLOUDY    68  66  94 S7        30.06F FOG
GOSHEN         LGT RAIN  71  67  87 NE3       30.08R FOG
LOGANSPORT +   CLOUDY    77  61  57 S7        30.08R
PERU/GRISSOM   CLOUDY    78  67  69 SW7       30.06F
ROCHESTER +    CLOUDY    81  68  65 SE6       30.07S
SOUTH BEND     CLOUDY    69  66  90 S7        30.05F
WARSAW +       LGT RAIN  73  66  78 S3        30.08R

$$

INZ006>009-017-018-025>027-292000-
NORTHEAST INDIANA

CITY           SKY/WX    TMP DP  RH WIND       PRES   REMARKS
ANGOLA *+      MOSUNNY   70  63  78 CALM      30.09R
AUBURN +       LGT RAIN  73  64  73 CALM      30.08S
FORT WAYNE     CLOUDY    79  67  66 CALM      30.08F
HUNTINGTON +   CLOUDY    78  63  60 SW5       30.07S

$$

INZ028-029-035-036-043>045-051>053-292000-
WEST CENTRAL INDIANA

CITY           SKY/WX    TMP DP  RH WIND       PRES   REMARKS
CRAWFORDSVL +  CLOUDY    77  64  62 S7        30.07S
GREENCASTLE +  CLOUDY    79  66  65 S9        30.08F
LAFAYETTE      CLOUDY    80  66  62 S7        30.05S
TERRE HAUTE    CLOUDY    81  68  64 S10       30.06F

$$

INZ030>032-037>040-046>048-054>057-064-065-292000-
CENTRAL INDIANA

CITY           SKY/WX    TMP DP  RH WIND       PRES   REMARKS
ANDERSON       MOSUNNY   81  61  50 S8        30.10F
FRANKFORT +    CLOUDY    79  69  71 S3        30.09S
GREENWOOD *+   CLOUDY    81  64  57 S6        30.09F
INDIANAPOLIS   CLOUDY    79  66  64 S9        30.07F
-EAGLE CREEK   CLOUDY    80  66  62 SW7       30.07F
KOKOMO *+      CLOUDY    81  68  65 SW6       30.07F
MARION +       CLOUDY    78  58  50 SW9       30.08F
MT COMFORT *+  CLOUDY    81  63  54 SW6       30.09S
SHELBYVILLE    CLOUDY    83  68  60 SW8       30.08F
ZIONSVILLE +   CLOUDY    80  65  61 S5        30.09S

$$

INZ033-034-041-042-049-050-058-059-292000-
EAST CENTRAL INDIANA

CITY           SKY/WX    TMP DP  RH WIND       PRES   REMARKS
MUNCIE         CLOUDY    79  65  62 SW8       30.08F

$$

INZ060-061-067>069-081>083-085>088-292000-
SOUTHWEST INDIANA

CITY           SKY/WX    TMP DP  RH WIND       PRES   REMARKS
EVANSVILLE     CLOUDY    85  69  58 W5        30.06F
HUNTINGBURG *+ MOSUNNY   88  70  55 SW12      30.07F
WASHINGTON +   CLOUDY    83  63  49 SW3       30.06F

$$

INZ062-063-066-070>080-084-089>092-292000-
SOUTH CENTRAL AND SOUTHEAST INDIANA

CITY           SKY/WX    TMP DP  RH WIND       PRES   REMARKS
BLOOMINGTON    CLOUDY    81  69  67 S6        30.09S
MADISON *+     PTSUNNY   82  66  57 S8        30.12S
NORTH VERNON + PTSUNNY   84  68  58 S9        30.10F
SEYMOUR +      PTSUNNY   86  68  54 S7        30.07F

$$




USA.gov is the U.S. government's official web portal to all federal, state and local government web resources and services.